Flag for Hungary Weather past 2 weeks in Szeged, Hungary

Now
71 °F

Scattered clouds.


Feels Like: 72 °F
Forecast: 63 / 75 °F
Wind: 2 mph from Northwest

Location: Szeged

Current Time: Sep 4, 2015 at 8:44:51 AM

Latest Report: Sep 4, 2015 at 8:00 AM


Visibility: 16 mi

Pressure: 29.87 "Hg

Humidity: 78%

Dew point: 64 °F

Location of SzegedLocation

Historic Weather in Szeged — Graph

°F

Szeged temperature yesterday

Maximum temperature yesterday: 87 °F (at 4:00 PM)
Minimum temperature yesterday: 62 °F (at 5:00 AM)
Average temperature yesterday: 74 °F

Past Weeks' High & Low Weather Summary

 TemperatureHumidityPressure
High96 °F (Aug 30, 4:00 PM)97% (Aug 20, 7:00 AM)30.19 "Hg (Aug 20, 7:00 AM)
Low53 °F (Aug 24, 6:00 AM)25% (Sep 1, 6:00 PM)29.81 "Hg (Sep 1, 6:00 PM)
Average72 °F71%30.03 "Hg
* Reported Aug 20 7:00 AM — Sep 4 7:00 AM, Szeged, Weather by CustomWeather, © 2015

Note: Actual official high and low records may vary slightly from our data, if they occured in-between our weather recording intervals... More about our weather records

Advertising

Szeged weather history for previous 24 hours

 ConditionsComfort  
Time TempWeatherWind HumidityBarometerVisibility
7:00 AM
Fri, Sep 4
65 °FScattered clouds.1 mph93%29.86 "Hg9 mi
6:00 AM66 °FThunderstorms. Passing clouds.2 mph92%29.85 "Hg9 mi
5:00 AM68 °FThunderstorms. Passing clouds.No wind90%29.85 "Hg9 mi
4:00 AM69 °FThundershowers. Overcast.2 mph90%29.87 "Hg9 mi
3:00 AM68 °FPassing clouds.1 mph92%29.84 "Hg9 mi
2:00 AM71 °FOvercast.1 mph86%29.85 "Hg11 mi
1:00 AM71 °FOvercast.2 mph86%29.85 "Hg11 mi
12:00 AM71 °FOvercast.1 mph89%29.86 "Hg11 mi
11:00 PM
Thu, Sep 3
72 °FOvercast.2 mph84%29.87 "Hg12 mi
10:00 PM75 °FSprinkles. Overcast.1 mph65%29.88 "Hg16 mi
9:00 PM74 °FOvercast.2 mph64%29.86 "Hg16 mi
8:00 PM76 °FPassing clouds.2 mph58%29.85 "Hg16 mi
7:00 PM82 °FPartly sunny.2 mph50%29.85 "Hg19 mi
6:00 PM85 °FPartly sunny.1 mph45%29.85 "Hg22 mi
5:00 PM87 °FScattered clouds.1 mph41%29.86 "Hg22 mi
4:00 PM87 °FScattered clouds.1 mph44%29.87 "Hg25 mi
3:00 PM87 °FScattered clouds.1 mph42%29.88 "Hg25 mi
2:00 PM86 °FPartly sunny.1 mph43%29.90 "Hg25 mi
1:00 PM83 °FPassing clouds.2 mph45%29.91 "Hg25 mi
12:00 PM82 °FPassing clouds.2 mph50%29.93 "Hg25 mi
11:00 AM77 °FPassing clouds.2 mph55%29.94 "Hg25 mi
10:00 AM73 °FPassing clouds.2 mph63%29.94 "Hg25 mi
9:00 AM70 °FPassing clouds.3 mph69%29.94 "Hg19 mi
8:00 AM66 °FScattered clouds.5 mph78%29.93 "Hg19 mi
Weather by CustomWeather, © 2015

See weather overviewHow to use our weather pages